Tracking 17155 objects as of 28-July-2015
HD Live streaming from Space Station

SDS-4

Track SDS-4 now!
10-day predictions
SDS-4 is classified as:


NORAD ID: 38339
Int'l Code: 2012-025C
Perigee: 663.6 km
Apogee: 672.8 km
Inclination: 98.3 °
Period: 98.0 minutes
Semi major axis: 7039 km
RCS: 0.47 m2 (medium)
Launch date: May 17, 2012
Source: Japan (JPN)
Your satellite tracking list
Your tracking list is empty





NASA's NSSDC Master Catalog

Two Line Element Set (TLE):
1 38339U 12025C   15209.12294868  .00000194  00000-0  41009-4 0  9995
2 38339 098.3169 174.3502 0006592 302.1143 057.9422 14.70000653171208

Source of the keplerian elements: AFSPC

N2YO: 296